Weather History for Pampa, TX

Change the Weather History Date:

Tuesday, December 17, 2013

  Actual Average Record
Temperature  
Mean Temperature 45 °F -  
Max Temperature 61 °F 48 °F 65 °F (1976)
Min Temperature 29 °F 22 °F 0 °F (1964)
Degree Days  
Heating Degree Days 20    
Moisture  
Dew Point 18 °F    
Average Humidity 39    
Maximum Humidity 64    
Minimum Humidity 18    
Precipitation  
Precipitation 0.00 in - - ()
Sea Level Pressure  
Sea Level Pressure 30.28 in    
Wind  
Wind Speed 8 mph (South)    
Max Wind Speed 14 mph    
Max Gust Speed -    
Visibility 10 miles    
Events      
Averages and records for this station are not official NWS values.
T = Trace of Precipitation, MM = Missing Value Source: NWS Daily Summary

Daily Weather History Graph

Daily Weather History Graph

Search for Another Location

Airport:

Trip Planner

Search our weather history database for the weather conditions in past years. The results will help you decide how hot, cold, wet, or windy it might be!

Date:

Astronomy

Dec. 17, 2013 Rise Set
Actual Time 7:47 AM CST 5:32 PM CST
Civil Twilight 7:19 AM CST 6:01 PM CST
Nautical Twilight 6:47 AM CST 6:33 PM CST
Astronomical Twilight 6:16 AM CST 7:04 PM CST
Moon 6:12 PM CST (12/17) 7:47 AM CST (12/17)
Length of Visible Light 10h 42m
Length of Day
9h 45m
Full, 100% of the Moon is Illuminated
Dec 17
Full
Dec 25
Last Quarter
Jan 1
New
Jan 7
First Quarter
Jan 15
Full

Hourly Weather History & Observations

Time (CST) Temp. Windchill Dew Point Humidity Pressure Visibility Wind Dir Wind Speed Gust Speed Precip Events Conditions
12:15 AM 41.0 °F 34.7 °F 16.7 °F 37% 30.21 in 10.0 mi SW 10.4 mph - N/A   Clear
12:35 AM 41.5 °F 37.1 °F 16.5 °F 36% 30.21 in 10.0 mi SSW 6.9 mph - N/A   Clear
12:55 AM 39.4 °F 37.2 °F 16.2 °F 39% 30.22 in 10.0 mi West 3.5 mph - N/A   Clear
1:15 AM 40.5 °F 35.8 °F 15.4 °F 36% 30.21 in 10.0 mi West 6.9 mph - N/A   Clear
1:35 AM 36.9 °F 32.2 °F 15.8 °F 42% 30.21 in 10.0 mi SW 5.8 mph - N/A   Clear
1:55 AM 32.0 °F 25.6 °F 15.8 °F 51% 30.21 in 10.0 mi West 6.9 mph - N/A   Clear
2:15 AM 33.1 °F 28.7 °F 16.0 °F 50% 30.21 in 10.0 mi SW 4.6 mph - N/A   Clear
2:35 AM 35.1 °F 30.1 °F 15.6 °F 45% 30.22 in 10.0 mi WSW 5.8 mph - N/A   Clear
2:55 AM 38.8 °F 33.8 °F 14.9 °F 38% 30.22 in 10.0 mi West 6.9 mph - N/A   Clear
3:15 AM 43.0 °F 38.8 °F 15.3 °F 33% 30.23 in 10.0 mi West 6.9 mph - N/A   Clear
3:35 AM 45.7 °F 42.0 °F 15.6 °F 30% 30.23 in 10.0 mi West 6.9 mph - N/A   Clear
3:55 AM 40.3 °F 35.5 °F 16.2 °F 38% 30.23 in 10.0 mi West 6.9 mph - N/A   Clear
4:15 AM 37.9 °F 30.9 °F 16.3 °F 42% 30.23 in 10.0 mi West 10.4 mph - N/A   Clear
4:35 AM 37.6 °F 31.6 °F 16.7 °F 43% 30.23 in 10.0 mi West 8.1 mph - N/A   Clear
4:55 AM 36.0 °F 28.5 °F 16.7 °F 46% 30.23 in 10.0 mi WNW 10.4 mph - N/A   Clear
5:15 AM 34.3 °F 25.9 °F 15.8 °F 47% 30.24 in 10.0 mi WNW 11.5 mph - N/A   Clear
5:35 AM 33.1 °F 24.9 °F 16.2 °F 50% 30.24 in 10.0 mi WNW 10.4 mph - N/A   Clear
5:55 AM 33.8 °F 24.8 °F 16.5 °F 49% 30.24 in 10.0 mi West 12.7 mph - N/A   Clear
6:15 AM 32.9 °F 23.7 °F 16.5 °F 51% 30.25 in 10.0 mi WNW 12.7 mph - N/A   Clear
6:35 AM 31.3 °F 23.3 °F 15.8 °F 53% 30.27 in 10.0 mi WNW 9.2 mph - N/A   Clear
6:55 AM 30.4 °F 21.5 °F 15.8 °F 55% 30.27 in 10.0 mi West 10.4 mph - N/A   Clear
7:15 AM 30.4 °F 22.9 °F 15.8 °F 55% 30.27 in 10.0 mi West 8.1 mph - N/A   Clear
7:35 AM 29.1 °F 20.0 °F 15.8 °F 58% 30.27 in 10.0 mi West 10.4 mph - N/A   Clear
7:55 AM 31.5 °F 22.9 °F 16.2 °F 53% 30.28 in 10.0 mi West 10.4 mph - N/A   Clear
8:15 AM 31.8 °F 23.9 °F 16.7 °F 54% 30.29 in 10.0 mi WNW 9.2 mph - N/A   Clear
8:35 AM 32.4 °F 25.3 °F 16.7 °F 53% 30.30 in 10.0 mi NW 8.1 mph - N/A   Clear
8:55 AM 34.3 °F 28.4 °F 16.7 °F 49% 30.32 in 10.0 mi NW 6.9 mph - N/A   Clear
9:15 AM 37.0 °F 33.3 °F 17.2 °F 45% 30.32 in 10.0 mi NW 4.6 mph - N/A   Clear
9:35 AM 38.3 °F 34.8 °F 16.9 °F 42% 30.33 in 10.0 mi NW 4.6 mph - N/A   Clear
9:55 AM 40.1 °F 36.9 °F 17.6 °F 40% 30.34 in 10.0 mi NW 4.6 mph - N/A   Clear
10:15 AM 44.8 °F - 17.8 °F 34% 30.34 in 10.0 mi Calm Calm - N/A   Clear
10:35 AM 47.1 °F - 18.0 °F 31% 30.35 in 10.0 mi NNE 4.6 mph - N/A   Clear
10:55 AM 50.2 °F - 17.4 °F 27% 30.36 in 10.0 mi North 6.9 mph - N/A   Clear
11:15 AM 50.9 °F - 17.1 °F 26% 30.36 in 10.0 mi NE 6.9 mph - N/A   Clear
11:35 AM 51.6 °F - 17.6 °F 26% 30.35 in 10.0 mi NE 6.9 mph - N/A   Clear
11:55 AM 53.6 °F - 17.8 °F 24% 30.34 in 10.0 mi NE 12.7 mph - N/A   Clear
12:15 PM 54.5 °F - 18.3 °F 24% 30.34 in 10.0 mi NE 13.8 mph - N/A   Clear
12:35 PM 55.4 °F - 18.9 °F 24% 30.33 in 10.0 mi ENE 10.4 mph - N/A   Clear
12:55 PM 57.2 °F - 19.2 °F 23% 30.32 in 10.0 mi ENE 11.5 mph - N/A   Clear
1:15 PM 58.3 °F - 18.5 °F 21% 30.32 in 10.0 mi East 11.5 mph - N/A   Clear
1:35 PM 59.2 °F - 18.5 °F 21% 30.30 in 10.0 mi ENE 8.1 mph - N/A   Clear
1:55 PM 60.6 °F - 18.3 °F 19% 30.30 in 10.0 mi ENE 8.1 mph - N/A   Clear
2:15 PM 60.8 °F - 18.3 °F 19% 30.29 in 10.0 mi ENE 11.5 mph - N/A   Clear
2:35 PM 61.0 °F - 17.6 °F 19% 30.29 in 10.0 mi East 9.2 mph - N/A   Clear
2:55 PM 61.2 °F - 17.6 °F 18% 30.28 in 10.0 mi East 10.4 mph - N/A   Clear
3:15 PM 61.0 °F - 17.2 °F 18% 30.29 in 10.0 mi East 9.2 mph - N/A   Clear
3:35 PM 61.2 °F - 17.6 °F 18% 30.28 in 10.0 mi ESE 10.4 mph - N/A   Clear
3:55 PM 61.0 °F - 16.9 °F 18% 30.28 in 10.0 mi East 10.4 mph - N/A   Clear
4:15 PM 60.3 °F - 17.4 °F 19% 30.28 in 10.0 mi East 10.4 mph - N/A   Clear
4:35 PM 59.0 °F - 17.6 °F 20% 30.29 in 10.0 mi East 9.2 mph - N/A   Clear
4:55 PM 56.8 °F - 18.1 °F 22% 30.29 in 10.0 mi East 5.8 mph - N/A   Clear
5:15 PM 53.6 °F - 18.3 °F 25% 30.29 in 10.0 mi ESE 4.6 mph - N/A   Clear
5:35 PM 50.7 °F - 17.8 °F 27% 30.29 in 10.0 mi ESE 4.6 mph - N/A   Clear
5:55 PM 45.7 °F 42.0 °F 17.2 °F 32% 30.28 in 10.0 mi ESE 6.9 mph - N/A   Clear
6:15 PM 46.2 °F 41.7 °F 18.3 °F 33% 30.28 in 10.0 mi ESE 9.2 mph - N/A   Clear
6:35 PM 44.2 °F 39.7 °F 17.8 °F 35% 30.28 in 10.0 mi SE 8.1 mph - N/A   Clear
6:55 PM 44.1 °F 39.5 °F 18.5 °F 36% 30.29 in 10.0 mi SE 8.1 mph - N/A   Clear
7:15 PM 43.9 °F 38.8 °F 19.2 °F 37% 30.29 in 10.0 mi SE 9.2 mph - N/A   Clear
7:35 PM 39.4 °F 32.7 °F 18.9 °F 44% 30.28 in 10.0 mi SSE 10.4 mph - N/A   Clear
7:55 PM 42.1 °F 36.1 °F 20.3 °F 42% 30.28 in 10.0 mi SSE 10.4 mph - N/A   Clear
8:15 PM 41.0 °F 35.2 °F 20.3 °F 44% 30.28 in 10.0 mi SSE 9.2 mph - N/A   Clear
8:35 PM 41.9 °F 35.9 °F 20.7 °F 43% 30.27 in 10.0 mi SSE 10.4 mph - N/A   Clear
8:55 PM 42.4 °F 37.5 °F 20.5 °F 42% 30.27 in 10.0 mi SE 8.1 mph - N/A   Clear
9:15 PM 37.9 °F 32.1 °F 20.7 °F 50% 30.27 in 10.0 mi SSE 8.1 mph - N/A   Clear
9:35 PM 38.3 °F 31.9 °F 21.4 °F 51% 30.27 in 10.0 mi South 9.2 mph - N/A   Clear
9:55 PM 37.6 °F 31.0 °F 21.9 °F 53% 30.27 in 10.0 mi South 9.2 mph - N/A   Clear
10:15 PM 37.2 °F 30.0 °F 22.1 °F 54% 30.27 in 10.0 mi South 10.4 mph - N/A   Clear
10:35 PM 39.0 °F 32.8 °F 22.6 °F 52% 30.27 in 10.0 mi South 9.2 mph - N/A   Clear
10:55 PM 36.5 °F 28.7 °F 22.1 °F 56% 30.26 in 10.0 mi South 11.5 mph - N/A   Clear
11:15 PM 34.5 °F 26.7 °F 21.7 °F 60% 30.26 in 10.0 mi South 10.4 mph - N/A   Clear
11:35 PM 32.9 °F 25.3 °F 21.2 °F 62% 30.26 in 10.0 mi South 9.2 mph - N/A   Clear
11:55 PM 32.2 °F 24.4 °F 21.2 °F 64% 30.25 in 10.0 mi South 9.2 mph - N/A   Clear